Flag for Lithuania Weather past 2 weeks in Vilnius, Lithuania

Now
32 °F

Snow. Ice fog.


Feels Like: 24 °F
Forecast: 26 / 37 °F
Wind: 10 mph from West

Location: Vilnius Airport

Current Time: Mar 5, 2015 at 10:14:24 AM

Latest Report: Mar 5, 2015 at 9:20 AM


Visibility: 1 mi

Pressure: 30.09 "Hg

Humidity: 100%

Dew point: 32 °F

Location of VilniusLocation

Historic Weather in Vilnius — Graph

°F

Vilnius temperature yesterday

Maximum temperature yesterday: 37 °F (at 12:20 PM)
Minimum temperature yesterday: 28 °F (at 6:50 AM)
Average temperature yesterday: 33 °F

Past Weeks' High & Low Weather Summary

 TemperatureHumidityPressure
High43 °F (Feb 20, 2:50 PM)100% (Feb 18, 5:20 PM)30.45 "Hg (Feb 18, 5:20 PM)
Low19 °F (Feb 18, 8:20 AM)61% (Feb 21, 2:20 PM)29.45 "Hg (Mar 2, 8:50 PM)
Average36 °F92%29.89 "Hg
* Reported Feb 18 8:20 AM — Mar 5 8:50 AM, Vilnius, Weather by CustomWeather, © 2015

Note: Actual official high and low records may vary slightly from our data, if they occured in-between our weather recording intervals... More about our weather records

Advertising

Vilnius weather history for previous 24 hours

 ConditionsComfort  
Time TempWeatherWind HumidityBarometerVisibility
8:50 AM
Thu, Mar 5
30 °FSnow. Ice fog.13 mph100%30.09 "Hg1 mi
8:20 AM30 °FSnow. Ice fog.12 mph100%30.09 "Hg1 mi
7:50 AM30 °FSnow. Ice fog.13 mph100%30.09 "Hg1 mi
7:20 AM30 °FSnow. Ice fog.12 mph100%30.07 "Hg1 mi
6:53 AM30 °FSnow. Ice fog.12 mph100%30.07 "Hg1 mi
6:20 AM32 °FSnow. Ice fog.12 mph100%30.07 "Hg1 mi
5:20 AM32 °FSnow. Ice fog.10 mph100%30.04 "Hg1 mi
4:50 AM32 °FSnow. Ice fog.10 mph100%30.04 "Hg1 mi
3:50 AM32 °FSnow. Ice fog.7 mph100%30.04 "Hg1 mi
3:20 AM32 °FSnow. Ice fog.7 mph100%30.01 "Hg1 mi
2:50 AM32 °FLight snow. Fog.6 mph100%30.01 "Hg1 mi
2:20 AM32 °FLight snow. Ice fog.5 mph100%30.01 "Hg1 mi
1:50 AM32 °FIce fog.5 mph93%30.01 "Hg2 mi
1:20 AM32 °FLight snow. Ice fog.5 mph93%29.98 "Hg2 mi
12:50 AM32 °FLight snow. Ice fog.7 mph100%29.98 "Hg2 mi
12:20 AM32 °FLight rain. Ice fog.6 mph100%29.98 "Hg1 mi
11:20 PM
Wed, Mar 4
32 °FLight rain. Ice fog.7 mph100%29.95 "Hg2 mi
10:50 PM32 °FLight rain. Ice fog.9 mph100%29.95 "Hg1 mi
10:20 PM32 °FIce fog.9 mph100%29.92 "Hg2 mi
9:50 PM32 °FIce fog.7 mph100%29.92 "Hg2 mi
9:20 PM32 °FIce fog.6 mph100%29.92 "Hg2 mi
8:50 PM32 °FIce fog.5 mph100%29.92 "Hg1 mi
8:20 PM32 °FIce fog.5 mph100%29.92 "Hg1 mi
7:50 PM34 °FFog.7 mph100%29.92 "Hg2 mi
7:20 PM32 °FIce fog.7 mph100%29.92 "Hg2 mi
6:50 PM32 °FIce fog.8 mph100%29.89 "Hg2 mi
6:20 PM32 °FLight rain. Ice fog.8 mph100%29.89 "Hg1 mi
5:50 PM32 °FLight rain. Ice fog.7 mph100%29.89 "Hg1 mi
5:20 PM32 °FLight rain. Ice fog.8 mph100%29.86 "Hg1 mi
4:50 PM32 °FLight rain. Ice fog.9 mph100%29.86 "Hg1 mi
4:20 PM32 °FRain. Low clouds.9 mph100%29.86 "Hg1 mi
3:50 PM32 °FRain. Low clouds.10 mph100%29.86 "Hg2 mi
3:20 PM32 °FRain. Low clouds.13 mph100%29.86 "Hg1 mi
2:50 PM32 °FRain. Low clouds.9 mph100%29.86 "Hg1 mi
2:20 PM34 °FSnow showers. Mostly cloudy.8 mph93%29.86 "Hg1 mi
1:50 PM34 °FSnow showers. Mostly cloudy.10 mph93%29.86 "Hg1 mi
1:20 PM36 °FSnow showers. Mostly cloudy.14 mph81%29.86 "Hg2 mi
1:02 PM37 °FLight rain. Fog.14 mph75%29.86 "Hg2 mi
12:20 PM37 °FClear.13 mph75%29.86 "Hg4 mi
11:50 AM36 °FClear.12 mph81%29.89 "Hg4 mi
11:20 AM34 °FClear.12 mph87%29.89 "Hg4 mi
10:50 AM34 °FClear.10 mph87%29.89 "Hg4 mi
10:20 AM34 °FFog.10 mph87%29.89 "Hg2 mi
Weather by CustomWeather, © 2015

See weather overviewHow to use our weather pages